Weather History for KSDF - April, 2014

Change the Weather History Date:

Sunday, April 27, 2014

  Actual Average Record
Temperature  
Mean Temperature 69 °F 62 °F  
Max Temperature 83 °F 72 °F 88 °F (1986)
Min Temperature 55 °F 51 °F 34 °F (1976)
Degree Days  
Heating Degree Days 0 5  
Month to date heating degree days 172 231  
Since 1 July heating degree days 4474 4010  
Cooling Degree Days 4 2  
Month to date cooling degree days 28 35  
Year to date cooling degree days 28 41  
Growing Degree Days 18 (Base 50)    
Moisture  
Dew Point 53 °F    
Average Humidity 62    
Maximum Humidity 87    
Minimum Humidity 36    
Precipitation  
Precipitation 0.22 in 0.15 in 3.10 in (2011)
Month to date precipitation 5.02 3.56  
Year to date precipitation 13.48 14.15  
Snow  
Snow 0.00 in 0.00 in 0.00 in ()
Month to date snowfall 0.1 0.1  
Since 1 July snowfall 26.0 12.5  
Snow Depth 0.00 in    
Sea Level Pressure  
Sea Level Pressure 29.87 in    
Wind  
Wind Speed 7 mph (ESE)    
Max Wind Speed 26 mph    
Max Gust Speed 33 mph    
Visibility 10 miles    
Events Rain , Thunderstorm    
T = Trace of Precipitation, MM = Missing Value Source: NWS Daily Summary

Daily Weather History Graph

Daily Weather History Graph

Search for Another Location

Airport or City:

Trip Planner

Search our weather history database for the weather conditions in past years. The results will help you decide how hot, cold, wet, or windy it might be!

Date:

Astronomy

Apr. 27, 2014 Rise Set
Actual Time 6:51 AM EDT 8:30 PM EDT
Civil Twilight 6:23 AM EDT 8:58 PM EDT
Nautical Twilight 5:49 AM EDT 9:32 PM EDT
Astronomical Twilight 5:13 AM EDT 10:08 PM EDT
Moon 5:49 AM EDT (4/27) 7:04 PM EDT (4/27)
Length of Visible Light 14h 35m
Length of Day
13h 39m
Waning Crescent, 3% of the Moon is Illuminated
Apr 27
Waning Crescent
Apr 29
New
May 6
First Quarter
May 14
Full
May 21
Last Quarter

Hourly Weather History & Observations

Time (EDT) Temp. Heat Index Dew Point Humidity Pressure Visibility Wind Dir Wind Speed Gust Speed Precip Events Conditions
12:56 AM 62.1 °F - 45.0 °F 53% 29.90 in 10.0 mi Calm Calm - N/A   Scattered Clouds
1:56 AM 60.1 °F - 45.0 °F 57% 29.90 in 10.0 mi Calm Calm - N/A   Scattered Clouds
2:56 AM 57.9 °F - 46.0 °F 65% 29.89 in 10.0 mi ESE 4.6 mph - N/A   Mostly Cloudy
3:56 AM 57.9 °F - 46.0 °F 65% 29.89 in 10.0 mi Calm Calm - N/A   Mostly Cloudy
4:56 AM 57.0 °F - 48.0 °F 72% 29.91 in 10.0 mi North 5.8 mph - N/A   Mostly Cloudy
5:56 AM 57.9 °F - 46.0 °F 65% 29.90 in 10.0 mi SSE 3.5 mph - N/A   Mostly Cloudy
6:56 AM 55.9 °F - 46.0 °F 69% 29.93 in 10.0 mi NNE 3.5 mph - N/A   Scattered Clouds
7:56 AM 57.9 °F - 46.9 °F 67% 29.95 in 10.0 mi NE 4.6 mph - N/A   Scattered Clouds
8:56 AM 62.1 °F - 46.9 °F 58% 29.95 in 10.0 mi ENE 5.8 mph - N/A   Scattered Clouds
9:56 AM 64.0 °F - 46.9 °F 54% 29.95 in 10.0 mi East 6.9 mph - N/A   Mostly Cloudy
10:56 AM 69.1 °F - 48.9 °F 49% 29.92 in 10.0 mi SE 5.8 mph - N/A   Mostly Cloudy
11:56 AM 73.9 °F - 51.1 °F 45% 29.90 in 10.0 mi East 4.6 mph - N/A   Mostly Cloudy
12:56 PM 77.0 °F - 53.1 °F 43% 29.88 in 10.0 mi East 9.2 mph - N/A   Scattered Clouds
1:56 PM 80.1 °F 79.9 °F 53.1 °F 39% 29.85 in 10.0 mi ESE 9.2 mph - N/A   Mostly Cloudy
2:56 PM 82.9 °F 82.0 °F 55.0 °F 38% 29.83 in 10.0 mi ESE 11.5 mph - N/A   Overcast
3:56 PM 80.6 °F 80.5 °F 55.4 °F 42% 29.82 in 10.0 mi SSE 12.7 mph - N/A   Overcast
4:56 PM 81.0 °F - 51.1 °F 35% 29.78 in 10.0 mi ESE 10.4 mph - N/A   Overcast
5:56 PM 81.0 °F 80.4 °F 53.1 °F 38% 29.77 in 10.0 mi ESE 10.4 mph - N/A   Overcast
6:56 PM 81.0 °F 80.7 °F 55.0 °F 41% 29.78 in 10.0 mi SSE 8.1 mph - N/A   Overcast
7:56 PM 75.9 °F - 60.1 °F 58% 29.81 in 9.0 mi West 17.3 mph - 0.00 in Rain Light Rain
8:03 PM 73.0 °F - 62.1 °F 68% 29.78 in 8.0 mi NW 15.0 mph - 0.00 in Rain Light Rain
8:36 PM 71.1 °F - 61.0 °F 70% 29.88 in 10.0 mi ESE 26.5 mph 33.4 mph 0.00 in Thunderstorm Thunderstorm
8:56 PM 66.0 °F - 60.1 °F 81% 29.85 in 4.0 mi ENE 8.1 mph - 0.06 in Rain , Thunderstorm Thunderstorms and Rain
9:12 PM 64.0 °F - 61.0 °F 90% 29.85 in 6.0 mi ENE 3.5 mph - 0.15 in Rain Light Rain
9:56 PM 64.9 °F - 62.1 °F 90% 29.86 in 10.0 mi ESE 9.2 mph - 0.16 in Rain Light Rain
10:56 PM 64.9 °F - 61.0 °F 87% 29.82 in 10.0 mi East 10.4 mph - 0.00 in   Overcast
11:56 PM 64.9 °F - 61.0 °F 87% 29.82 in 10.0 mi South 4.6 mph - N/A   Overcast